Weather History for St. Paul Lake Elmo, MN

Change the Weather History Date:

Sunday, April 6, 2014

  Actual Average (KSTP) Record (KSTP)
Temperature  
Mean Temperature 48 °F -  
Max Temperature 60 °F 51 °F 68 °F (2004)
Min Temperature 37 °F 32 °F 18 °F (2007)
Degree Days  
Heating Degree Days 16    
Moisture  
Dew Point 36 °F    
Average Humidity 67    
Maximum Humidity 87    
Minimum Humidity 48    
Precipitation  
Precipitation 0.00 in - - ()
Sea Level Pressure  
Sea Level Pressure 29.87 in    
Wind  
Wind Speed 8 mph (SSW)    
Max Wind Speed 14 mph    
Max Gust Speed 17 mph    
Visibility 10 miles    
Events Rain    
Averages and records for this station are not official NWS values.
T = Trace of Precipitation, MM = Missing Value Source: NWS Daily Summary

Daily Weather History Graph

Daily Weather History Graph

Search for Another Location

Airport:

Trip Planner

Search our weather history database for the weather conditions in past years. The results will help you decide how hot, cold, wet, or windy it might be!

Date:

Astronomy

Apr. 06, 2014 Rise Set
Actual Time 6:42 AM CDT 7:45 PM CDT
Civil Twilight 6:12 AM CDT 8:15 PM CDT
Nautical Twilight 5:37 AM CDT 8:51 PM CDT
Astronomical Twilight 4:59 AM CDT 9:29 PM CDT
Moon 11:35 AM CDT (4/6) 1:50 AM CDT (4/6)
Length of Visible Light 14h 02m
Length of Day
13h 02m
Waxing Crescent, 44% of the Moon is Illuminated
Apr 6
Waxing Crescent
Apr 7
First Quarter
Apr 15
Full
Apr 22
Last Quarter
Apr 29
New

Hourly Weather History & Observations

Time (CDT) Temp. Windchill Dew Point Humidity Pressure Visibility Wind Dir Wind Speed Gust Speed Precip Events Conditions
12:11 AM 37.4 °F 30.8 °F 32.0 °F 81% 29.97 in 10.0 mi SSE 9.2 mph - N/A   Clear
12:31 AM 37.4 °F 31.4 °F 32.0 °F 81% 29.97 in 10.0 mi South 8.1 mph - N/A   Scattered Clouds
12:51 AM 37.4 °F 32.1 °F 32.0 °F 81% 29.97 in 10.0 mi South 6.9 mph - N/A   Mostly Cloudy
1:11 AM 37.4 °F 32.1 °F 32.0 °F 81% 29.96 in 10.0 mi South 6.9 mph - N/A   Overcast
1:31 AM 37.4 °F 31.4 °F 32.0 °F 81% 29.96 in 10.0 mi South 8.1 mph - N/A   Scattered Clouds
1:51 AM 37.4 °F 31.4 °F 32.0 °F 81% 29.95 in 10.0 mi South 8.1 mph - N/A   Scattered Clouds
2:11 AM 39.2 °F 33.6 °F 32.0 °F 75% 29.94 in 10.0 mi South 8.1 mph - N/A   Mostly Cloudy
2:31 AM 39.2 °F 33.0 °F 32.0 °F 75% 29.94 in 10.0 mi South 9.2 mph - N/A   Overcast
2:51 AM 41.0 °F 35.2 °F 32.0 °F 70% 29.93 in 10.0 mi South 9.2 mph - N/A   Overcast
3:11 AM 41.0 °F 34.7 °F 32.0 °F 70% 29.93 in 10.0 mi South 10.4 mph - N/A   Overcast
3:31 AM 41.0 °F 34.7 °F 32.0 °F 70% 29.92 in 10.0 mi South 10.4 mph - N/A   Overcast
3:51 AM 41.0 °F 34.7 °F 32.0 °F 70% 29.91 in 10.0 mi South 10.4 mph - N/A   Overcast
4:11 AM 41.0 °F 35.8 °F 32.0 °F 70% 29.91 in 10.0 mi South 8.1 mph - N/A   Overcast
4:31 AM 41.0 °F 35.2 °F 32.0 °F 70% 29.90 in 10.0 mi South 9.2 mph - N/A   Overcast
4:51 AM 41.0 °F 34.7 °F 32.0 °F 70% 29.90 in 10.0 mi South 10.4 mph - N/A   Mostly Cloudy
5:11 AM 41.0 °F 34.3 °F 32.0 °F 70% 29.89 in 10.0 mi South 11.5 mph - N/A   Scattered Clouds
5:31 AM 39.2 °F 34.2 °F 32.0 °F 75% 29.89 in 10.0 mi South 6.9 mph - N/A   Scattered Clouds
5:51 AM 39.2 °F 34.2 °F 32.0 °F 75% 29.89 in 10.0 mi South 6.9 mph - N/A   Scattered Clouds
6:10 AM 37.4 °F 32.8 °F 32.0 °F 81% 29.89 in 10.0 mi South 5.8 mph - N/A   Clear
6:31 AM 37.4 °F 30.8 °F 32.0 °F 81% 29.89 in 10.0 mi South 9.2 mph - N/A   Scattered Clouds
6:51 AM 39.2 °F 32.0 °F 32.0 °F 75% 29.88 in 10.0 mi South 11.5 mph - N/A   Scattered Clouds
7:11 AM 39.2 °F 32.5 °F 32.0 °F 75% 29.89 in 10.0 mi South 10.4 mph - N/A   Scattered Clouds
7:31 AM 41.0 °F 34.3 °F 32.0 °F 70% 29.89 in 10.0 mi South 11.5 mph - N/A   Scattered Clouds
7:51 AM 41.0 °F 34.3 °F 32.0 °F 70% 29.89 in 10.0 mi South 11.5 mph - N/A   Mostly Cloudy
8:11 AM 39.2 °F 32.5 °F 32.0 °F 75% 29.89 in 10.0 mi South 10.4 mph - N/A Rain Light Rain
8:31 AM 41.0 °F 34.7 °F 32.0 °F 70% 29.89 in 10.0 mi South 10.4 mph - N/A   Scattered Clouds
8:51 AM 42.8 °F 36.6 °F 33.8 °F 70% 29.88 in 10.0 mi South 11.5 mph - N/A   Scattered Clouds
9:11 AM 42.8 °F 37.0 °F 33.8 °F 70% 29.88 in 10.0 mi South 10.4 mph - N/A   Scattered Clouds
9:31 AM 42.8 °F 35.8 °F 33.8 °F 70% 29.87 in 10.0 mi South 13.8 mph 17.3 mph N/A   Mostly Cloudy
9:51 AM 44.6 °F 39.2 °F 35.6 °F 71% 29.87 in 10.0 mi South 10.4 mph - N/A   Scattered Clouds
10:11 AM 46.4 °F 41.9 °F 35.6 °F 66% 29.86 in 10.0 mi SSW 9.2 mph - N/A   Clear
10:31 AM 50.0 °F - 35.6 °F 58% 29.86 in 10.0 mi SW 11.5 mph - N/A   Clear
10:51 AM 50.0 °F - 35.6 °F 58% 29.86 in 10.0 mi SSW 11.5 mph - N/A   Clear
11:11 AM 50.0 °F - 37.4 °F 62% 29.86 in 10.0 mi SSW 10.4 mph - N/A   Clear
11:30 AM 51.8 °F - 35.6 °F 54% 29.86 in 10.0 mi SW 11.5 mph - N/A   Clear
11:51 AM 51.8 °F - 37.4 °F 58% 29.85 in 10.0 mi SW 11.5 mph - N/A   Clear
12:11 PM 51.8 °F - 37.4 °F 58% 29.85 in 10.0 mi WSW 11.5 mph - N/A   Clear
12:30 PM 53.6 °F - 37.4 °F 54% 29.84 in 10.0 mi SW 12.7 mph - N/A   Clear
12:51 PM 53.6 °F - 39.2 °F 58% 29.84 in 10.0 mi SW 9.2 mph - N/A   Clear
1:11 PM 53.6 °F - 39.2 °F 58% 29.84 in 10.0 mi SW 8.1 mph - N/A   Clear
1:30 PM 55.4 °F - 39.2 °F 54% 29.84 in 10.0 mi WSW 11.5 mph - N/A   Clear
1:51 PM 55.4 °F - 41.0 °F 58% 29.83 in 10.0 mi SW 5.8 mph - N/A   Clear
2:11 PM 57.2 °F - 41.0 °F 55% 29.83 in 10.0 mi WSW 6.9 mph - N/A   Clear
2:31 PM 57.2 °F - 41.0 °F 55% 29.82 in 10.0 mi WSW 5.8 mph - N/A   Clear
2:51 PM 59.0 °F - 41.0 °F 51% 29.82 in 10.0 mi WSW 4.6 mph - N/A   Clear
3:11 PM 59.0 °F - 41.0 °F 51% 29.82 in 10.0 mi WSW 8.1 mph - N/A   Clear
3:31 PM 59.0 °F - 41.0 °F 51% 29.82 in 10.0 mi SW 6.9 mph - N/A   Clear
3:51 PM 59.0 °F - 41.0 °F 51% 29.82 in 10.0 mi SSW 5.8 mph - N/A   Clear
4:10 PM 59.0 °F - 41.0 °F 51% 29.82 in 10.0 mi SW 9.2 mph - N/A   Clear
4:31 PM 60.8 °F - 41.0 °F 48% 29.81 in 10.0 mi SW 6.9 mph - N/A   Clear
4:51 PM 60.8 °F - 41.0 °F 48% 29.81 in 10.0 mi SW 8.1 mph - N/A   Clear
5:11 PM 60.8 °F - 41.0 °F 48% 29.81 in 10.0 mi West 3.5 mph - N/A   Clear
5:31 PM 60.8 °F - 41.0 °F 48% 29.81 in 10.0 mi West 6.9 mph - N/A   Clear
5:51 PM 59.0 °F - 41.0 °F 51% 29.81 in 10.0 mi NW 5.8 mph - N/A   Clear
6:11 PM 59.0 °F - 39.2 °F 48% 29.82 in 10.0 mi WNW 6.9 mph - N/A   Clear
6:51 PM 57.2 °F - 39.2 °F 51% 29.81 in 10.0 mi NW 3.5 mph - N/A   Clear
7:11 PM 57.2 °F - 39.2 °F 51% 29.81 in 10.0 mi Calm Calm - N/A   Clear
7:31 PM 55.4 °F - 42.8 °F 63% 29.82 in 10.0 mi Calm Calm - N/A   Clear
7:51 PM 51.8 °F - 41.0 °F 67% 29.82 in 10.0 mi Calm Calm - N/A   Clear
8:11 PM 50.0 °F - 41.0 °F 71% 29.83 in 10.0 mi Calm Calm - N/A   Clear
8:31 PM 46.4 °F - 42.8 °F 87% 29.84 in 10.0 mi Calm Calm - N/A   Clear
8:51 PM 46.4 °F - 37.4 °F 71% 29.84 in 10.0 mi Calm Calm - N/A   Clear
9:11 PM 42.8 °F - 39.2 °F 87% 29.84 in 10.0 mi Calm Calm - N/A   Clear
9:31 PM 42.8 °F - 37.4 °F 81% 29.85 in 10.0 mi Calm Calm - N/A   Clear
9:51 PM 42.8 °F - 37.4 °F 81% 29.85 in 10.0 mi Calm Calm - N/A   Scattered Clouds
10:11 PM 41.0 °F 34.7 °F 35.6 °F 81% 29.86 in 10.0 mi SSE 10.4 mph - N/A   Mostly Cloudy
10:31 PM 44.6 °F - 37.4 °F 76% 29.85 in 10.0 mi Calm Calm - N/A   Overcast
10:51 PM 42.8 °F - 37.4 °F 81% 29.85 in 10.0 mi Calm Calm - N/A   Scattered Clouds
11:11 PM 41.0 °F 39.0 °F 37.4 °F 87% 29.85 in 10.0 mi SSW 3.5 mph - N/A   Clear
11:31 PM 41.0 °F 38.0 °F 37.4 °F 87% 29.86 in 10.0 mi South 4.6 mph - N/A   Scattered Clouds
11:51 PM 41.0 °F 37.1 °F 37.4 °F 87% 29.86 in 10.0 mi South 5.8 mph - N/A   Scattered Clouds